Weather History for Bradford, PA

Change the Weather History Date:

Wednesday, August 28, 2013

  Actual Average Record
Temperature  
Mean Temperature 70 °F 62 °F  
Max Temperature 74 °F 74 °F 92 °F (1973)
Min Temperature 66 °F 51 °F 32 °F (1968)
Degree Days  
Heating Degree Days 0 1  
Month to date heating degree days 84 20  
Since 1 June heating degree days 240 229  
Since 1 July heating degree days 136 84  
Cooling Degree Days 5 1  
Month to date cooling degree days 34 49  
Year to date cooling degree days 275 173  
Since 1 June cooling degree days 232 163  
Growing Degree Days 20 (Base 50)    
Moisture  
Dew Point 65 °F    
Average Humidity 83    
Maximum Humidity 93    
Minimum Humidity 73    
Precipitation  
Precipitation 0.23 in 0.13 in 1.96 in (1992)
Month to date precipitation 3.15 3.74  
Year to date precipitation 21.41 29.58  
Sea Level Pressure  
Sea Level Pressure 29.92 in    
Wind  
Wind Speed 3 mph (ENE)    
Max Wind Speed 9 mph    
Max Gust Speed 12 mph    
Visibility 7 miles    
Events Rain    
T = Trace of Precipitation, MM = Missing Value Source: NWS Daily Summary

Daily Weather History Graph

Daily Weather History Graph

Search for Another Location

Airport:

Trip Planner

Search our weather history database for the weather conditions in past years. The results will help you decide how hot, cold, wet, or windy it might be!

Date:

Astronomy

Aug. 28, 2013 Rise Set
Actual Time 6:36 AM EDT 7:54 PM EDT
Civil Twilight 6:07 AM EDT 8:22 PM EDT
Nautical Twilight 5:32 AM EDT 8:57 PM EDT
Astronomical Twilight 4:56 AM EDT 9:33 PM EDT
Moon No Moon Rise 2:32 PM EDT (8/28)
Length of Visible Light 14h 15m
Length of Day
13h 17m
Waning Gibbous, 47% of the Moon is Illuminated
Aug 28
Waning Gibbous
Sep 5
New
Sep 12
First Quarter
Sep 19
Full
Sep 26
Last Quarter

Hourly Weather History & Observations

Time (EDT) Temp. Dew Point Humidity Pressure Visibility Wind Dir Wind Speed Gust Speed Precip Events Conditions
12:53 AM 68.0 °F 64.9 °F 90% 29.94 in 4.0 mi Variable 5.8 mph - 0.05 in Rain Light Rain
1:03 AM 68.0 °F 64.9 °F 90% 29.99 in 4.0 mi WSW 3.5 mph - 0.01 in Rain Rain
1:16 AM 68.0 °F 64.9 °F 90% 29.99 in 3.0 mi Variable 4.6 mph - 0.02 in Rain Rain
1:26 AM 68.0 °F 64.9 °F 90% 29.98 in 4.0 mi West 3.5 mph - 0.03 in Rain Light Rain
1:53 AM 66.9 °F 64.9 °F 93% 29.93 in 3.0 mi West 3.5 mph - 0.06 in Rain Light Rain
2:07 AM 66.9 °F 64.9 °F 93% 29.98 in 2.0 mi Calm Calm - 0.01 in Rain Heavy Rain
2:19 AM 66.9 °F 64.0 °F 90% 29.97 in 4.0 mi Calm Calm - 0.03 in Rain Light Rain
2:53 AM 66.9 °F 64.0 °F 90% 29.90 in 8.0 mi Calm Calm - 0.07 in Rain Light Rain
3:53 AM 66.9 °F 64.0 °F 90% 29.89 in 8.0 mi Calm Calm - 0.04 in   Overcast
4:39 AM 66.9 °F 64.0 °F 90% 29.94 in 9.0 mi Calm Calm - N/A   Overcast
4:53 AM 66.0 °F 64.0 °F 93% 29.89 in 5.0 mi Calm Calm - N/A   Overcast
5:53 AM 66.0 °F 64.0 °F 93% 29.89 in 5.0 mi South 3.5 mph - 0.00 in Rain Light Rain
6:04 AM 66.0 °F 63.0 °F 90% 29.94 in 4.0 mi SSW 4.6 mph - 0.01 in Rain Rain
6:37 AM 66.0 °F 63.0 °F 90% 29.94 in 8.0 mi Calm Calm - 0.02 in Rain Light Rain
6:53 AM 66.0 °F 63.0 °F 90% 29.90 in 5.0 mi Calm Calm - 0.02 in Rain Light Rain
6:58 AM 66.0 °F 64.0 °F 93% 29.95 in 5.0 mi Calm Calm - 0.01 in Rain Light Rain
7:31 AM 66.0 °F 64.0 °F 93% 29.95 in 6.0 mi SE 3.5 mph - 0.02 in Rain Light Rain
7:46 AM 66.0 °F 64.0 °F 93% 29.95 in 6.0 mi Calm Calm - 0.02 in   Overcast
7:53 AM 66.0 °F 64.0 °F 93% 29.90 in 5.0 mi Calm Calm - 0.02 in   Overcast
8:41 AM 66.9 °F 64.9 °F 93% 29.94 in 3.0 mi SSE 3.5 mph - 0.01 in   Overcast
8:53 AM 68.0 °F 66.0 °F 93% 29.89 in 4.0 mi South 4.6 mph - 0.01 in   Overcast
9:04 AM 69.1 °F 66.0 °F 90% 29.93 in 5.0 mi SSE 3.5 mph - 0.01 in Rain Light Rain
9:53 AM 70.0 °F 66.9 °F 90% 29.88 in 8.0 mi SSW 3.5 mph - 0.01 in   Overcast
10:11 AM 70.0 °F 66.0 °F 87% 29.93 in 10.0 mi SW 4.6 mph - N/A   Overcast
10:53 AM 71.1 °F 66.9 °F 87% 29.88 in 8.0 mi SSE 3.5 mph - N/A   Overcast
11:37 AM 72.0 °F 66.0 °F 81% 29.93 in 10.0 mi Calm Calm - N/A   Overcast
11:53 AM 72.0 °F 66.9 °F 84% 29.88 in 9.0 mi Calm Calm - N/A   Overcast
12:39 PM 73.0 °F 66.9 °F 81% 29.92 in 10.0 mi Calm Calm - N/A   Overcast
12:53 PM 73.0 °F 66.9 °F 81% 29.87 in 10.0 mi Calm Calm - N/A   Overcast
1:21 PM 73.0 °F 66.9 °F 81% 29.92 in 9.0 mi ENE 5.8 mph - N/A   Overcast
1:50 PM 71.6 °F 68.0 °F 88% 29.92 in 6.0 mi East 6.9 mph - N/A   Overcast
1:53 PM 72.0 °F 68.0 °F 87% 29.88 in 6.0 mi ENE 5.8 mph - N/A   Overcast
2:00 PM 72.0 °F 68.0 °F 87% 29.92 in 5.0 mi ENE 5.8 mph - N/A   Overcast
2:13 PM 73.0 °F 68.0 °F 84% 29.92 in 5.0 mi ENE 4.6 mph - N/A   Haze
2:36 PM 72.0 °F 66.9 °F 84% 29.92 in 6.0 mi NE 8.1 mph - N/A   Haze
2:53 PM 71.1 °F 66.9 °F 87% 29.88 in 4.0 mi NE 6.9 mph - N/A   Overcast
3:24 PM 71.1 °F 66.9 °F 87% 29.93 in 7.0 mi NE 8.1 mph - N/A   Overcast
3:53 PM 70.0 °F 66.0 °F 87% 29.89 in 8.0 mi NE 5.8 mph - 0.00 in Rain Light Rain
4:14 PM 71.1 °F 66.0 °F 84% 29.93 in 10.0 mi ENE 6.9 mph - 0.00 in   Overcast
4:48 PM 71.6 °F 66.2 °F 83% 29.93 in 10.0 mi Variable 4.6 mph - 0.00 in   Overcast
4:53 PM 72.0 °F 66.0 °F 81% 29.88 in 10.0 mi Variable 4.6 mph - 0.00 in   Overcast
5:53 PM 72.0 °F 66.0 °F 81% 29.89 in 10.0 mi NE 6.9 mph - N/A   Overcast
6:07 PM 73.0 °F 66.0 °F 79% 29.94 in 10.0 mi NNE 6.9 mph - N/A   Overcast
6:24 PM 73.9 °F 66.0 °F 76% 29.93 in 10.0 mi North 4.6 mph - N/A   Overcast
6:53 PM 73.0 °F 64.9 °F 76% 29.89 in 10.0 mi NNE 4.6 mph - N/A   Partly Cloudy
7:53 PM 70.0 °F 64.9 °F 84% 29.91 in 10.0 mi North 4.6 mph - N/A   Clear
8:53 PM 69.1 °F 64.9 °F 87% 29.93 in 8.0 mi Calm Calm - N/A   Clear
9:53 PM 69.1 °F 66.0 °F 90% 29.95 in 10.0 mi NNE 5.8 mph - N/A   Mostly Cloudy
10:53 PM 69.1 °F 66.0 °F 90% 29.96 in 8.0 mi NE 5.8 mph - N/A   Partly Cloudy
11:29 PM 68.0 °F 64.9 °F 90% 30.00 in 6.0 mi North 3.5 mph - N/A   Partly Cloudy
11:53 PM 66.9 °F 64.0 °F 90% 29.96 in 5.0 mi NNW 3.5 mph - N/A   Clear